[[{"header":{"parameterUnit":"m.s-1","parameterCategory":1,"la1":30.2991,"la2":30.254,"lo1":-89.0895,"lo2":-89.0444,"dy":0.0017,"dx":0.0017,"nx":28,"ny":28,"refTime":"2023-07-31T03:00:00:Z","depth":0,"parameterNumber":2,"parameterNumberName":"U-component_of_WINDS"},"data":[0,0,0,0,0,0,0,0,0,0,0,0,0,0,0,0,0,0,0,0,0,0,0,0,0,0,0,0,0,0,0,0,0,0,0,0,0,0,0,0,0,0,0,0,0,0,0,0,0,0,0,0,0,0,0,0,0,0,-0.0366,-0.0365,0,-0.0261,-0.026,-0.0259,-0.0193,-0.0193,-0.0192,-0.0192,-0.008,-0.0078,-0.0075,0,0,0,0,0,0,0,0,0,0,0,0,0,-0.0505,-0.0503,-0.0366,-0.0365,-0.0363,-0.0261,-0.026,-0.0258,-0.0193,-0.0193,-0.0192,-0.0192,-0.0081,-0.0078,-0.0075,0,0,0,0,0,0,0,0,0,0,0,0,0,-0.0427,-0.0502,-0.0366,-0.0319,-0.0313,-0.0261,-0.026,-0.0258,-0.0193,-0.0193,-0.0192,-0.0192,-0.0082,-0.0078,-0.0074,-0.006,0,0,-0.0062,-0.0061,0,0,0,0,0,0,0,0,-0.0431,-0.0422,-0.0327,-0.0322,-0.0316,-0.024,-0.0268,-0.0192,-0.0193,-0.0239,-0.0192,-0.0191,-0.0134,-0.0125,-0.0107,-0.0055,-0.005,-0.0062,-0.006,-0.0058,-0.0057,0,0,0,0,0,0,0,-0.0437,-0.0426,-0.0324,-0.0326,-0.0319,-0.0301,-0.0289,-0.0253,-0.019,-0.0235,-0.023,-0.0218,-0.013,-0.0111,-0.0103,-0.0049,-0.0062,-0.0059,-0.0056,-0.0055,0.0021,0.0021,0,0,0,0,0,0,-0.045,-0.0431,-0.0328,-0.0321,-0.0374,-0.0299,-0.0286,-0.0265,-0.019,-0.0179,-0.0219,-0.0216,-0.0118,-0.0108,-0.0099,-0.0077,-0.0058,-0.0054,-0.0052,0.0021,0.0021,0.0021,0,0,0,0,0,0,-0.0454,-0.0442,-0.0332,-0.0375,-0.0359,-0.0297,-0.0274,-0.0263,-0.0243,-0.0179,-0.0167,-0.0211,-0.0117,-0.0105,-0.0071,-0.0073,-0.0052,-0.0049,0.0022,0.0021,0.0021,-0.0034,0,0,0,0,0,0,-0.0458,-0.0443,-0.0439,-0.0375,-0.0357,-0.0307,-0.0274,-0.0261,-0.0237,-0.0232,-0.0168,-0.0157,-0.0116,-0.0077,-0.0067,-0.0067,-0.0046,0.0022,0.0022,0.0021,-0.0032,-0.0037,-0.0041,0,0,0,0,0,-0.0463,-0.0458,-0.0439,-0.0427,-0.035,-0.0307,-0.0297,-0.0251,-0.0237,-0.0231,-0.019,-0.0159,-0.0074,-0.0074,-0.0062,-0.0061,0.0023,0.0022,0.0021,-0.003,-0.0036,-0.004,0,0,0,0,0,0,-0.0522,-0.0449,-0.0427,-0.0401,-0.0361,-0.0296,-0.0287,-0.0258,-0.022,-0.0217,-0.016,-0.0146,-0.0117,-0.0085,-0.0086,-0.0043,-0.0022,-0.002,-0.0065,-0.007,-0.0074,-0.0082,-0.0042,0,0,0,0,0,-0.0532,-0.0505,-0.0441,-0.0424,-0.0405,-0.035,-0.0329,-0.0297,-0.0253,-0.0235,-0.0191,-0.0148,-0.0111,-0.0089,-0.0052,-0.0027,-0.0011,-0.002,-0.0024,-0.0028,-0.0028,-0.0011,-0.0014,0.0018,0.0018,0.0018,0,0,-0.0552,-0.0509,-0.0495,-0.0435,-0.04,-0.0371,-0.0336,-0.0307,-0.0285,-0.023,-0.0196,-0.0162,-0.0109,-0.008,-0.0064,-0.0052,-0.0033,-0.0029,-0.0033,-0.003,-0.0012,-0.0015,-0.0018,0.0017,0.0017,0.0017,0,0,-0.0575,-0.054,-0.0522,-0.0487,-0.0436,-0.0399,-0.0394,-0.0333,-0.0309,-0.0274,-0.0232,-0.0204,-0.0142,-0.0107,-0.0081,-0.0089,-0.0058,-0.0078,-0.0101,-0.0085,-0.0088,-0.009,-0.0092,-0.0094,-0.0078,-0.0078,-0.0078,0,-0.0606,-0.0563,-0.0515,-0.0489,-0.0463,-0.0414,-0.0394,-0.0363,-0.0301,-0.0284,-0.0271,-0.0193,-0.0154,-0.0115,-0.0118,-0.0098,-0.009,-0.0085,-0.0092,-0.0093,-0.0094,-0.0096,-0.0097,-0.008,-0.008,-0.008,-0.008,0,-0.0604,-0.0574,-0.0566,-0.0509,-0.0482,-0.0459,-0.0406,-0.0385,-0.0355,-0.0319,-0.0282,-0.0234,-0.0186,-0.0174,-0.0145,-0.0131,-0.0125,-0.0103,-0.0081,-0.0101,-0.0101,-0.0102,-0.0084,-0.0083,-0.0083,-0.0082,0,0,-0.0661,-0.0578,-0.0576,-0.0549,-0.0488,-0.0463,-0.0437,-0.0392,-0.0374,-0.0332,-0.0308,-0.0257,-0.0236,-0.0207,-0.0172,-0.0159,-0.0168,-0.0138,-0.0136,-0.0145,-0.0149,-0.0166,-0.0167,-0.0147,-0.0147,-0.0147,-0.0153,0,-0.0675,-0.0628,-0.0584,-0.0552,-0.0523,-0.0475,-0.0452,-0.0411,-0.0376,-0.0346,-0.0306,-0.0271,-0.0246,-0.0228,-0.0213,-0.017,-0.0167,-0.0169,-0.0123,-0.0122,-0.0138,-0.0168,-0.0186,-0.0194,-0.0153,-0.0153,-0.0153,0,-0.0685,-0.0647,-0.0613,-0.0554,-0.054,-0.052,-0.0475,-0.0446,-0.0398,-0.0373,-0.034,-0.0304,-0.0272,-0.0254,-0.0209,-0.0211,-0.0189,-0.0165,-0.0164,-0.0158,-0.0139,-0.0163,-0.0196,-0.0197,-0.0153,-0.0153,-0.0153,0,-0.073,-0.067,-0.0642,-0.062,-0.0551,-0.0538,-0.0508,-0.0459,-0.0435,-0.0394,-0.0377,-0.0333,-0.0308,-0.0274,-0.0226,-0.0217,-0.0186,-0.0163,-0.0164,-0.0165,-0.016,-0.0161,-0.019,-0.0146,-0.0146,-0.0146,-0.0146,0,-0.075,-0.0731,-0.0661,-0.0644,-0.062,-0.0569,-0.0546,-0.0512,-0.0469,-0.0443,-0.0398,-0.0374,-0.0312,-0.028,-0.0242,-0.021,-0.0199,-0.0177,-0.0168,-0.0182,-0.0185,-0.0167,-0.0165,-0.0146,-0.0146,-0.0146,-0.0146,0,-0.0797,-0.075,-0.0716,-0.0653,-0.0636,-0.0622,-0.0567,-0.0547,-0.0509,-0.0477,-0.0466,-0.0406,-0.0366,-0.0315,-0.0258,-0.0233,-0.0205,-0.019,-0.0222,-0.0217,-0.022,-0.022,-0.0239,-0.0238,-0.0195,-0.0196,-0.0196,0,-0.0813,-0.0797,-0.0733,-0.0713,-0.0685,-0.0653,-0.0627,-0.0575,-0.055,-0.0494,-0.0481,-0.0438,-0.04,-0.0338,-0.0289,-0.0245,-0.0228,-0.0238,-0.0221,-0.0236,-0.0228,-0.023,-0.0228,-0.0242,-0.0243,-0.0243,-0.0244,0,-0.0846,-0.0824,-0.079,-0.0747,-0.0719,-0.0682,-0.0644,-0.0629,-0.0569,-0.0543,-0.0502,-0.0473,-0.0416,-0.0373,-0.0323,-0.029,-0.0256,-0.025,-0.0247,-0.0262,-0.0281,-0.027,-0.0234,-0.0249,-0.0249,-0.0248,-0.0248,-0.0248,-0.0878,-0.0862,-0.0814,-0.0777,-0.0743,-0.0708,-0.0686,-0.0646,-0.0612,-0.0562,-0.0533,-0.0493,-0.0443,-0.0372,-0.0341,-0.0308,-0.0295,-0.0292,-0.0291,-0.0291,-0.0296,-0.0286,-0.0298,-0.0298,-0.0298,-0.0298,-0.0297,0,-0.0909,-0.0876,-0.0842,-0.0791,-0.0761,-0.0734,-0.0689,-0.0666,-0.0632,-0.059,-0.0554,-0.0507,-0.0465,-0.0412,-0.0366,-0.035,-0.0333,-0.034,-0.034,-0.0333,-0.031,-0.0316,-0.0354,-0.0354,-0.0354,-0.0354,-0.0354,-0.0354,-0.0922,-0.0893,-0.0864,-0.0817,-0.0783,-0.0745,-0.0722,-0.0688,-0.0654,-0.0604,-0.057,-0.0536,-0.0488,-0.0439,-0.0398,-0.0384,-0.0369,-0.038,-0.0361,-0.034,-0.0335,-0.033,-0.0336,-0.0377,-0.0377,-0.0387,-0.0387,-0.0387]},{"header":{"parameterUnit":"m.s-1","parameterCategory":1,"la1":30.2991,"la2":30.254,"lo1":-89.0895,"lo2":-89.0444,"dy":0.0017,"dx":0.0017,"nx":28,"ny":28,"refTime":"2023-07-31T03:00:00:Z","depth":0,"parameterNumber":3,"parameterNumberName":"V-component_of_WINDS"},"data":[0,0,0,0,0,0,0,0,0,0,0,0,0,0,0,0,0,0,0,0,0,0,0,0,0,0,0,0,0,0,0,0,0,0,0,0,0,0,0,0,0,0,0,0,0,0,0,0,0,0,0,0,0,0,0,0,0,0,0.2412,0.2412,0,0.2388,0.2388,0.2388,0.2381,0.2381,0.2381,0.2381,0.2356,0.2356,0.2355,0,0,0,0,0,0,0,0,0,0,0,0,0,0.245,0.2449,0.2412,0.2412,0.2412,0.2388,0.2388,0.2388,0.2381,0.2381,0.2381,0.2381,0.2357,0.2356,0.2355,0,0,0,0,0,0,0,0,0,0,0,0,0,0.243,0.2449,0.2412,0.2405,0.2404,0.2388,0.2388,0.2387,0.2381,0.2381,0.2381,0.2381,0.2357,0.2356,0.2355,0.2344,0,0,0.2351,0.2351,0,0,0,0,0,0,0,0,0.2431,0.2429,0.2407,0.2406,0.2405,0.2388,0.2392,0.2373,0.2381,0.239,0.2381,0.2381,0.2367,0.2365,0.236,0.2343,0.2342,0.2351,0.235,0.235,0.235,0,0,0,0,0,0,0,0.2433,0.243,0.2403,0.2406,0.2405,0.2403,0.24,0.2388,0.2377,0.2389,0.2388,0.2386,0.2366,0.2361,0.2359,0.2341,0.2351,0.235,0.2349,0.2349,0.2311,0.231,0,0,0,0,0,0,0.2435,0.2431,0.2403,0.2402,0.2419,0.2402,0.2399,0.2393,0.2377,0.2375,0.2385,0.2385,0.2363,0.2361,0.2358,0.2342,0.235,0.2349,0.2348,0.2311,0.231,0.231,0,0,0,0,0,0,0.2436,0.2433,0.2404,0.2416,0.2412,0.2401,0.2394,0.2392,0.2387,0.2375,0.2373,0.2382,0.2363,0.236,0.2347,0.2341,0.2348,0.2347,0.2311,0.2311,0.231,0.2312,0,0,0,0,0,0,0.2437,0.2433,0.243,0.2416,0.2412,0.2394,0.2394,0.2392,0.2385,0.2385,0.2371,0.2369,0.2363,0.2348,0.2346,0.234,0.2346,0.2312,0.2311,0.231,0.2312,0.2311,0.231,0,0,0,0,0,0.2439,0.2432,0.243,0.2426,0.2407,0.2394,0.2391,0.2384,0.2385,0.238,0.2372,0.237,0.2343,0.2347,0.2344,0.2338,0.2312,0.2311,0.231,0.2312,0.2311,0.2311,0,0,0,0,0,0,0.2446,0.243,0.2428,0.2416,0.2406,0.2393,0.2387,0.2384,0.2373,0.2373,0.2365,0.2362,0.2348,0.2342,0.2347,0.2325,0.2327,0.2326,0.2329,0.2328,0.2328,0.2329,0.2345,0,0,0,0,0,0.2446,0.2437,0.2423,0.2415,0.241,0.2399,0.2393,0.2388,0.2377,0.2373,0.2364,0.2353,0.2342,0.2335,0.2324,0.2311,0.2307,0.2305,0.2304,0.2304,0.2302,0.2292,0.229,0.2308,0.2308,0.2308,0,0,0.2447,0.2437,0.2432,0.2416,0.2407,0.2397,0.2396,0.2386,0.2377,0.2372,0.2358,0.2351,0.2338,0.2324,0.2317,0.2318,0.2296,0.2303,0.2302,0.2301,0.2291,0.2289,0.2287,0.2307,0.2307,0.2307,0,0,0.2442,0.2434,0.2425,0.2416,0.2403,0.2395,0.2393,0.2379,0.2374,0.236,0.2355,0.2344,0.2326,0.2316,0.2309,0.2297,0.2294,0.2294,0.229,0.228,0.2278,0.2277,0.2271,0.2269,0.2293,0.2293,0.2293,0,0.2444,0.2428,0.242,0.2409,0.2401,0.2395,0.2384,0.2376,0.236,0.2355,0.2356,0.233,0.2322,0.2304,0.23,0.2296,0.2291,0.2295,0.2279,0.2278,0.2277,0.227,0.2268,0.2293,0.2293,0.2293,0.2293,0,0.2431,0.242,0.2413,0.2397,0.2389,0.2378,0.2367,0.2359,0.2354,0.2346,0.233,0.2319,0.2305,0.2301,0.2296,0.2281,0.2282,0.2281,0.2283,0.2275,0.2269,0.2266,0.2293,0.2293,0.2293,0.2293,0,0,0.2431,0.2408,0.2406,0.2397,0.2381,0.2372,0.236,0.2345,0.2338,0.2326,0.2315,0.2298,0.2296,0.2288,0.2282,0.2273,0.2261,0.2274,0.2273,0.227,0.2241,0.224,0.2238,0.2259,0.2259,0.2258,0.2241,0,0.2423,0.2401,0.2392,0.2374,0.2363,0.2355,0.2344,0.2332,0.2324,0.2312,0.2303,0.229,0.229,0.2284,0.2275,0.2265,0.2255,0.2266,0.2247,0.2246,0.2249,0.2235,0.2235,0.222,0.2239,0.2239,0.2238,0,0.2411,0.2398,0.2379,0.2361,0.2356,0.2347,0.233,0.232,0.2305,0.2299,0.2288,0.2282,0.2268,0.2271,0.2249,0.2257,0.2248,0.2241,0.224,0.2237,0.2241,0.223,0.2215,0.2212,0.2235,0.2235,0.2235,0,0.2411,0.2389,0.2374,0.2367,0.2346,0.2339,0.233,0.2316,0.2307,0.2292,0.2286,0.2271,0.2262,0.2249,0.2238,0.2242,0.2217,0.222,0.221,0.221,0.2205,0.2205,0.2186,0.2202,0.2202,0.2202,0.2202,0,0.2402,0.239,0.2373,0.2364,0.2349,0.2338,0.2323,0.2314,0.23,0.2288,0.2281,0.2269,0.2256,0.2242,0.2233,0.2215,0.2212,0.2205,0.2203,0.2205,0.2206,0.2199,0.2199,0.2201,0.2201,0.2201,0.2201,0,0.24,0.2388,0.2371,0.2352,0.2347,0.2336,0.232,0.2309,0.23,0.2284,0.2279,0.2264,0.2246,0.2234,0.2213,0.2207,0.2186,0.2185,0.2191,0.219,0.218,0.218,0.2155,0.215,0.217,0.217,0.217,0,0.2395,0.2385,0.2365,0.2355,0.2346,0.2332,0.2321,0.2309,0.2299,0.2279,0.2271,0.2253,0.2238,0.221,0.2197,0.2179,0.2176,0.2168,0.2173,0.2175,0.2173,0.2173,0.2171,0.2167,0.2167,0.2167,0.2167,0,0.2386,0.238,0.2366,0.2348,0.2336,0.2322,0.2308,0.23,0.2285,0.2273,0.2255,0.2243,0.222,0.2201,0.2182,0.2171,0.2166,0.2165,0.2162,0.2163,0.2166,0.2162,0.2187,0.2166,0.2166,0.2166,0.2166,0.2166,0.2381,0.2371,0.2354,0.2337,0.2325,0.2311,0.2299,0.2287,0.2271,0.2251,0.2245,0.2225,0.2207,0.218,0.2169,0.2153,0.2153,0.2149,0.2148,0.2146,0.2145,0.217,0.215,0.215,0.215,0.215,0.215,0,0.2371,0.2359,0.2343,0.2322,0.2308,0.2304,0.2287,0.2275,0.2258,0.2242,0.2227,0.2204,0.2185,0.2169,0.2149,0.2139,0.2135,0.2134,0.2134,0.2131,0.2147,0.2151,0.2136,0.2136,0.2136,0.2136,0.2136,0.2136,0.2364,0.2345,0.2336,0.231,0.2298,0.2278,0.2269,0.2255,0.2242,0.2217,0.22,0.219,0.2173,0.2151,0.2132,0.2128,0.212,0.2118,0.2113,0.2129,0.213,0.2131,0.2135,0.2117,0.2117,0.2098,0.2098,0.2098]}]]